Flag for Norway Weather past 2 weeks in Bergen, Norway

Now
55 °F

Refreshingly cool.


Feels Like: 55 °F
Forecast: 43 / 59 °F
Wind: 1 mph from South

Location: Bergen / Florida


UV Index: 0 (Low)

Visibility: N/A


Pressure: 30.21 "Hg

Humidity: 51%

Dew point: 37 °F

Location of BergenLocation

Historic Weather in Bergen

°F

Bergen temperature yesterday

Maximum temperature yesterday: 72 °F (at 4:00 PM)
Minimum temperature yesterday: 44 °F (at 6:00 AM)
Average temperature yesterday: 58 °F

Past Weeks' High & Low Weather Summary

 TemperatureHumidityPressure
High72 °F (Apr 22, 4:00 PM)86% (Apr 20, 7:00 AM)30.38 "Hg (Apr 20, 7:00 AM)
Low37 °F (Apr 20, 6:00 AM)22% (Apr 21, 5:00 PM)29.35 "Hg (Apr 13, 1:00 AM)
Average47 °F64%29.96 "Hg
* Reported Apr 8 9:00 AM — Apr 23 9:00 AM, Bergen, Weather by CustomWeather, © 2014

Note: Actual official high and low records may vary slightly from our data, if they occured in-between our weather recording intervals... More about our weather records

Advertising

Historic Weather Conditions — Data for Previous 24 hours

 ConditionsComfort  
Time TempWeatherWind HumidityBarometerVisibility
9:00 AM
Apr 23
55 °FRefreshingly cool.1 mph51%30.21 "HgN/A
8:00 AM54 °FOvercast.1 mph53%30.20 "Hg25 mi
7:00 AM54 °FCool.1 mph51%30.19 "HgN/A
6:00 AM53 °FCool.3 mph56%30.18 "HgN/A
5:00 AM52 °FCool.1 mph56%30.18 "HgN/A
4:00 AM51 °FCool.1 mph61%30.18 "HgN/A
3:00 AM51 °FCool.1 mph61%30.17 "HgN/A
2:00 AM51 °FCool.1 mph58%30.16 "HgN/A
1:00 AM51 °FCool.1 mph55%30.15 "HgN/A
12:00 AM53 °FCool.No wind54%30.15 "HgN/A
11:00 PM
Apr 22
55 °FPassing clouds.No wind45%30.14 "Hg28 mi
10:00 PM58 °FRefreshingly cool.1 mph41%30.13 "HgN/A
9:00 PM61 °FRefreshingly cool.1 mph36%30.11 "HgN/A
8:00 PM65 °FScattered clouds.2 mph29%30.10 "Hg28 mi
7:00 PM69 °FMild.3 mph25%30.09 "HgN/A
6:00 PM70 °FMild.3 mph27%30.09 "HgN/A
5:00 PM70 °FScattered clouds.5 mph26%30.09 "Hg28 mi
4:00 PM72 °FMild.3 mph26%30.09 "HgN/A
3:00 PM71 °FMild.3 mph26%30.10 "HgN/A
2:00 PM71 °FSunny.3 mph26%30.10 "Hg28 mi
1:00 PM69 °FMild.2 mph29%30.10 "HgN/A
12:00 PM66 °FMild.2 mph33%30.11 "HgN/A
11:00 AM64 °FSunny.2 mph33%30.11 "Hg25 mi
10:00 AM60 °FRefreshingly cool.1 mph43%30.11 "HgN/A
Weather by CustomWeather, © 2014

See weather overview